Terminal Aerodrome Forecast
Issued by NWS Upton, NY

Home | Current Version | Previous Version | Text Only | Print | Product List | Glossary On
Versions: 1 2 3 4 5 6 7 8 9 10 11 12 13 14 15 16 17 18 19 20 21 22 23 24 25 26 27 28 29 30 31 32 33 34 35 36 37
793
FTUS41 KOKX 191404 AAB
TAFBDR
TAF AMD
KBDR 191404Z 1914/2012 29005KT P6SM SCT025
      TEMPO 1914/1916 BKN025
     FM191900 31008KT P6SM SCT050
     FM200000 VRB05KT P6SM FEW020=

USA.gov is the U.S. government's official web portal to all federal, state and local government web resources and services.